CDT,Max TemperatureF,Mean TemperatureF,Min TemperatureF,Max Dew PointF,MeanDew PointF,Min DewpointF,Max Humidity, Mean Humidity, Min Humidity, Max Sea Level PressureIn, Mean Sea Level PressureIn, Min Sea Level PressureIn, Max VisibilityMiles, Mean VisibilityMiles, Min VisibilityMiles, Max Wind SpeedMPH, Mean Wind SpeedMPH, Max Gust SpeedMPH,PrecipitationIn, CloudCover, Events, WindDirDegrees
2013-7-1,87,80,73,66,64,61,75,57,40,29.95,29.91,29.87,10,10,10,12,2,,0.00,2,,348
2013-7-2,90,78,68,66,64,57,85,68,33,30.02,29.97,29.94,10,10,10,6,2,,0.00,1,,23
2013-7-3,91,80,68,65,63,55,84,66,31,30.04,30.00,29.94,10,10,10,8,4,,0.00,1,,31
2013-7-4,91,80,68,68,65,57,89,72,31,29.99,29.97,29.92,10,9,7,8,2,,0.00,1,,41
2013-7-5,93,82,70,72,68,63,88,74,36,29.99,29.96,29.92,10,10,6,15,3,23,0.00,1,Thunderstorm,74
2013-7-6,91,80,71,73,70,68,94,80,52,29.98,29.96,29.91,10,10,10,13,5,18,0.00,2,,77
2013-7-7,89,81,75,74,73,70,94,85,58,30.06,29.99,29.95,10,9,3,17,6,24,0.08,4,Rain-Thunderstorm,110
2013-7-8,93,82,74,76,73,70,95,83,49,30.15,30.10,30.04,10,8,1,14,6,21,0.00,3,Thunderstorm,131
2013-7-9,94,83,73,77,74,68,100,84,44,30.18,30.13,30.08,10,6,0,16,2,21,0.00,2,Fog-Rain,145
2013-7-10,94,83,73,75,72,66,100,79,41,30.11,30.07,29.99,10,10,5,13,4,,0.00,1,,192
2013-7-11,94,84,75,76,73,66,94,73,41,30.02,29.99,29.93,10,10,7,12,6,17,0.00,3,Thunderstorm,238
2013-7-12,95,86,75,75,73,70,95,80,44,29.98,29.93,29.87,10,9,5,10,2,20,0.01,3,Rain-Thunderstorm,235
2013-7-13,94,82,72,75,67,50,91,69,24,29.98,29.93,29.88,10,10,10,9,2,,0.00,2,,9
2013-7-14,90,80,71,72,67,59,94,72,36,29.98,29.93,29.91,10,10,7,6,1,,0.00,3,,93
2013-7-15,88,80,75,75,73,70,94,81,58,30.10,30.01,29.95,10,9,3,15,7,23,0.00,2,Thunderstorm,91
2013-7-16,88,80,73,75,73,70,94,85,55,30.16,30.09,30.06,10,10,6,17,5,21,0.00,3,Rain-Thunderstorm,71
2013-7-17,93,84,74,75,73,70,96,86,46,30.21,30.15,30.12,10,8,2,23,5,40,0.00,3,Rain-Thunderstorm,77
2013-7-18,93,82,72,74,71,64,97,83,41,30.17,30.12,30.03,10,10,7,18,2,23,0.03,2,Rain-Thunderstorm,41
2013-7-19,90,79,71,72,71,66,100,88,49,30.07,30.03,29.96,10,10,5,9,2,23,0.03,3,Thunderstorm,7
2013-7-20,90,80,71,75,71,66,100,86,46,30.01,29.98,29.91,10,10,7,18,1,22,0.00,2,Thunderstorm,145
2013-7-21,88,80,73,75,73,72,100,90,58,30.04,29.99,29.96,10,9,3,21,4,26,0.00,3,Rain-Thunderstorm,172
2013-7-22,92,82,73,81,75,72,100,85,55,30.06,30.01,29.99,10,7,2,18,4,24,0.00,2,,188
2013-7-23,93,84,78,78,75,68,94,79,46,30.06,30.01,29.94,10,7,5,16,7,23,0.00,2,,214
2013-7-24,93,85,77,76,74,68,91,76,46,30.02,29.96,29.90,10,8,7,15,7,22,0.00,1,,226
2013-7-25,93,86,78,77,75,72,90,76,52,30.06,30.00,29.96,10,7,4,9,5,,0.00,5,Rain,272
2013-7-26,93,84,75,79,74,68,100,82,46,30.07,30.02,29.95,10,7,2,16,2,,0.00,2,,202
2013-7-27,90,84,78,75,73,70,80,72,52,29.98,29.93,29.88,10,10,10,18,9,25,0.00,3,Rain,245
2013-7-28,90,82,74,77,73,72,95,83,59,30.02,29.96,29.92,10,10,7,10,5,,0.00,5,Thunderstorm,75
2013-7-29,94,84,74,77,74,63,100,84,36,30.11,30.05,30.01,10,6,0,12,2,18,0.00,1,Fog,190
2013-7-30,94,82,71,79,72,61,100,84,34,30.15,30.10,30.07,10,7,0,13,3,17,0.00,1,Fog,202
2013-7-31,95,84,73,77,73,68,99,82,41,30.11,30.07,29.98,10,9,7,13,2,20,0.00,1,,229